This is the latest recevied weather packets stored in our database for station/object KC5EZZ-2. If no packets are shown the sender has not sent any weather packets the latest 10 day(s).
| Time | Temp. | Humidity | Pressure | Rain* | Wind** | Luminosity | Snow |
|---|---|---|---|---|---|---|---|
| 1777380079 | 24.44° C | - | - | 0 mm | 2.68 m/s, 179° | - | - |
| 1777379779 | 24.44° C | - | - | 0 mm | 0.89 m/s, 179° | - | - |
| 1777379480 | 24.44° C | - | - | 0 mm | 1.79 m/s, 166° | - | - |
| 1777379177 | 24.44° C | - | - | 0 mm | 1.79 m/s, 156° | - | - |
| 1777378878 | 24.44° C | - | - | 0 mm | 0.89 m/s, 172° | - | - |
| 1777378578 | 24.44° C | - | - | 0 mm | 0 m/s | - | - |
| 1777378307 | 24.44° C | - | - | 0 mm | 1.34 m/s, 180° | - | - |
| 1777378274 | 24.44° C | - | - | 0 mm | 1.34 m/s, 180° | - | - |
| 1777377977 | 24.44° C | - | - | 0 mm | 0.89 m/s, 155° | - | - |
| 1777377675 | 24.44° C | - | - | 0 mm | 0 m/s | - | - |
| 1777377373 | 24.44° C | - | - | 0 mm | 1.34 m/s, 148° | - | - |
| 1777377073 | 24.44° C | - | - | 0 mm | 0.89 m/s, 228° | - | - |
| 1777376774 | 24.44° C | - | - | 0 mm | 1.34 m/s, 212° | - | - |
| 1777376471 | 24.44° C | - | - | 0 mm | 2.68 m/s, 207° | - | - |
| 1777376172 | 24.44° C | - | - | 0 mm | 2.24 m/s, 198° | - | - |
| 1777375872 | 24.44° C | - | - | 0 mm | 3.13 m/s, 177° | - | - |
| 1777375570 | 24.44° C | - | - | 0 mm | 2.68 m/s, 186° | - | - |
| 1777375270 | 24.44° C | - | - | 0 mm | 4.02 m/s, 172° | - | - |
| 1777375008 | 24.44° C | - | - | 0 mm | 2.68 m/s, 198° | - | - |
| 1777374971 | 24.44° C | - | - | 0 mm | 2.68 m/s, 198° | - | - |
| 1777374668 | 24.44° C | - | - | 0 mm | 3.13 m/s, 187° | - | - |
| 1777374369 | 24.44° C | - | - | 0 mm | 3.13 m/s, 166° | - | - |
| 1777374069 | 24.44° C | - | - | 0 mm | 3.58 m/s, 162° | - | - |
| 1777373767 | 24.44° C | - | - | 0 mm | 3.13 m/s, 155° | - | - |
| 1777373467 | 24.44° C | - | - | 0 mm | 4.02 m/s, 177° | - | - |
* Rain latest hour (hover to see other rain measurements)
** Current wind speed in m/s (hover to see current wind gust speed)